This demonstration page uses our WeatherBlox Daily Observations layout. Learn more.

39.92423, -83.80882

Hourly Observations for June 16, 2019

Temp ( °F °C ) Dew Point ( °F °C ) Humidity (%) Winds ( mph kmh ) Pressure ( in mb ) Visibility ( mi km ) Precip ( " mm )
12:08 am 00:08 Cloudy with Heavy Rain 66 19 66 19 100 100 W 8 13 29.81 1009 5 8.0467 0.03 0.762
12:20 am 00:20 Cloudy with Light Rain 66 19 66 19 100 100 W 13 20 29.82 1010 7 11.26538 0.07 1.778
12:56 am 00:56 Cloudy 68 20 68 20 100 100 SW 14 22 29.81 1010 10 16.0934 0.17 4.318
1:46 am 01:46 Cloudy 68 20 68 20 100 100 WSW 14 22 29.8 1009 10 16.0934 0.08 2.032
1:56 am 01:56 Cloudy 68 20 68 20 100 100 WSW 14 22 29.83 1010 10 16.0934 0.08 2.032
2:30 am 02:30 Cloudy 68 20 68 20 100 100 WSW 13 20 29.81 1010 10 16.0934 0 0
2:56 am 02:56 Mostly Cloudy 67 19.4 67 19.4 100 100 WSW 9 15 29.82 1010 10 16.0934 0 0
3:22 am 03:22 Cloudy 66 19 66 19 100 100 WSW 6 9 29.81 1009 7 11.26538 0 0
3:39 am 03:39 Cloudy 66 19 66 19 100 100 WSW 6 9 29.81 1009 8 12.87472 0 0
3:46 am 03:46 Cloudy 66 19 66 19 100 100 SW 6 9 29.81 1009 7 11.26538 0 0
3:54 am 03:54 Cloudy 66 19 66 19 100 100 SW 6 9 29.8 1009 7 11.26538 0 0
3:56 am 03:56 Cloudy 67 19.4 67 19.4 100 100 SW 6 9 29.81 1010 7 11.26538 0 0
4:04 am 04:04 Cloudy 66 19 66 19 100 100 SW 6 9 29.81 1009 7 11.26538 0 0
4:12 am 04:12 Cloudy with Mist and Fog 66 19 66 19 100 100 SSW 7 11 29.8 1009 6 9.65604 0 0
4:56 am 04:56 Cloudy with Light Rain 68 20 68 20 100 100 SSW 8 13 29.8 1009 5 8.0467 0 0.0254
5:56 am 05:56 Cloudy with Heavy Rain 67 19.4 67 19.4 100 100 SSW 8 13 29.8 1009 6 9.65604 0.12 3.048
6:05 am 06:05 Cloudy with Heavy Rain 66 19 66 19 100 100 SSW 6 9 29.8 1009 4 6.43736 0.02 0.508
6:35 am 06:35 Cloudy with Nearby Thunderstorms 66 19 66 19 100 100 S 8 13 29.81 1009 8 12.87472 0.11 2.794
6:56 am 06:56 Cloudy 67 19.4 67 19.4 100 100 S 7 11 29.83 1010 10 16.0934 0.16 4.064
7:32 am 07:32 Mostly Cloudy with Light Rain 66 19 66 19 100 100 WSW 7 11 29.82 1010 10 16.0934 0.08 2.032
7:40 am 07:40 Mostly Cloudy with Light Rain 66 19 66 19 100 100 SW 10 17 29.83 1010 10 16.0934 0.1 2.54
7:56 am 07:56 Cloudy with Rain 67 19.4 67 19.4 100 100 SSW 10 17 29.82 1010 9 14.48406 0.13 3.302
8:45 am 08:45 Cloudy with Light Rain 66 19 66 19 100 100 WSW 12 19 29.83 1010 10 16.0934 0.09 2.286
8:53 am 08:53 Cloudy with Light Rain 66 19 66 19 100 100 SW 9 15 29.83 1010 10 16.0934 0.1 2.54
8:56 am 08:56 Cloudy with Light Rain 67 19.4 67 19.4 100 100 SW 9 15 29.83 1010 10 16.0934 0.1 2.54
9:56 am 09:56 Cloudy 67 19.4 67 19.4 100 100 SW 17 28 29.86 1011 10 16.0934 0.05 1.27
10:48 am 10:48 Cloudy 68 20 68 20 100 100 SW 14 22 29.86 1011 10 16.0934 0 0
10:56 am 10:56 Cloudy 69 20.6 69 20.6 100 100 SW 13 20 29.87 1012 10 16.0934 0 0
11:53 am 11:53 Mostly Cloudy 73 23 70 21 89 89 WSW 17 28 29.85 1011 10 16.0934 0.01 0.254
11:56 am 11:56 Mostly Cloudy 73 22.8 69 20.6 87 87 SW 14 22 29.88 1012 10 16.0934 0.01 0.254
12:56 pm 12:56 Cloudy 74 23.3 68 20 82 82 SW 16 26 29.88 1012 10 16.0934 0 0
1:16 pm 13:16 Mostly Cloudy 75 24 70 21 83 83 WSW 15 24 29.85 1011 10 16.0934 0 0
1:36 pm 13:36 Mostly Cloudy 75 24 70 21 83 83 SW 16 26 29.85 1011 10 16.0934 0 0
1:56 pm 13:56 Mostly Cloudy 76 24.4 69 20.6 79 79 WSW 16 26 29.88 1012 10 16.0934 0 0
2:56 pm 14:56 Cloudy 77 25 71 21.7 82 82 W 16 26 29.88 1012 10 16.0934 0 0
3:56 pm 15:56 Cloudy 77 25 72 22.2 85 85 SW 12 19 29.87 1012 10 16.0934 0 0
4:42 pm 16:42 Cloudy 77 25 72 22 83 83 SW 12 19 29.83 1010 10 16.0934 0 0
4:56 pm 16:56 Cloudy 77 25 71 21.7 82 82 SW 13 20 29.85 1011 10 16.0934 0 0
5:56 pm 17:56 Partly Cloudy 78 25.6 72 22.2 82 82 SW 13 20 29.86 1011 10 16.0934 0 0
6:17 pm 18:17 Mostly Cloudy 79 26 72 22 79 79 SW 13 20 29.83 1010 10 16.0934 0 0
6:41 pm 18:41 Partly Cloudy 77 25 72 22 83 83 SSW 9 15 29.82 1010 10 16.0934 0 0
7:56 pm 19:56 Sunny 76 24.4 72 22.2 88 88 SSW 5 7 29.83 1010 10 16.0934 0 0
8:56 pm 20:56 Sunny 75 23.9 72 22.2 90 90 S 3 6 29.84 1011 10 16.0934 0 0
9:56 pm 21:56 Clear 72 22.2 72 22.2 100 100 SSE 6 9 29.86 1011 8 12.87472 0 0
10:20 pm 22:20 Mostly Cloudy 73 23 73 23 100 100 SSE 7 11 29.85 1011 10 16.0934 0 0
10:56 pm 22:56 Cloudy 73 22.8 72 22.2 96 96 SSW 8 13 29.89 1012 10 16.0934 0 0
11:31 pm 23:31 Partly Cloudy 72 22 72 22 100 100 SW 13 20 29.88 1012 10 16.0934 0 0
11:56 pm 23:56 Mostly Cloudy with Nearby Thunderstorms 71 21.7 70 21.1 96 96 SSW 12 19 29.89 1012 10 16.0934 0 0

Powered by AerisWeather